sat.trackr.live / text

‹ back to catalog

LPNTSAT-001 (IOD-1)

NORAD 68408 · 2026-065A

PAYLOAD ACTIVE UNKNOWN

§ Identity

Operator
Country
ESA
Launch date
2026-03-28
Launch site
RLLB
Launch vehicle
Mass (kg)
RCS (m²)

External: N2YO · Heavens-Above · Gunter

§ Orbital elements

Epoch: 2026-09-20T02:01:27.338016Z

Period
94.80 min
Inclination
97.3854°
Eccentricity
0.0017391
Mean motion
15.18931333 rev/d
Perigee alt
497.1 km
Apogee alt
521.0 km
Semi-major
6,887.2 km
B*
8.4409e-5
RAAN
141.5306°
Arg perigee
38.0278°
Mean anomaly
322.2181°
Rev number
2,666

§ Raw data

LPNTSAT-001 (IOD-1)1 68408U 26065A   26263.08434419  .00001701  00000+0  84409-4 0  99942 68408  97.3854 141.5306 0017391  38.0278 322.2181 15.18931333 26669

JSON: /api/v1/satellites/68408 · /tle

For live sub-satellite position, see the globe view (requires WebGL).

§ Visibility from observer

Set your observer location to see the next 7 days of passes ≥ 10°. The values pass through the URL so the page stays shareable.

No JS? Fill the form by hand. The geolocation button needs JavaScript.